Time,TemperatureF,DewpointF,PressureIn,WindDirection,WindDirectionDegrees,WindSpeedMPH,WindSpeedGustMPH,Humidity,HourlyPrecipIn,Conditions,Clouds,dailyrainin,SoftwareType,DateUTC
2013-06-10 08:02:00,57.0,44.0,29.98,South,169,1.0,-999.0,62,-99.99,,,-99.99,,2013-06-10 14:02:00,
2013-06-10 08:12:00,57.0,44.0,29.98,South,169,1.0,-999.0,62,-99.99,,,-99.99,,2013-06-10 14:12:00,
2013-06-10 08:22:00,58.0,45.0,29.97,South,169,0.0,-999.0,62,-99.99,,,-99.99,,2013-06-10 14:22:00,
2013-06-10 08:32:00,59.0,45.0,29.99,NNE,13,0.0,-999.0,59,-99.99,,,-99.99,,2013-06-10 14:32:00,
2013-06-10 08:42:00,59.0,45.0,29.99,NNE,13,0.0,-999.0,59,-99.99,,,-99.99,,2013-06-10 14:42:00,
2013-06-10 08:52:00,60.0,44.0,29.98,NNE,13,0.0,-999.0,55,-99.99,,,-99.99,,2013-06-10 14:52:00,
2013-06-10 09:01:00,63.0,46.0,29.99,SSW,197,1.0,-999.0,53,-99.99,,,-99.99,,2013-06-10 15:01:00,
2013-06-10 09:12:00,63.0,46.0,29.99,SSW,197,1.0,-999.0,53,-99.99,,,-99.99,,2013-06-10 15:12:00,
2013-06-10 09:22:00,64.0,45.0,29.99,SSW,200,4.0,-999.0,51,-99.99,,,-99.99,,2013-06-10 15:22:00,
2013-06-10 09:32:00,65.0,47.0,29.99,South,178,3.0,-999.0,52,-99.99,,,-99.99,,2013-06-10 15:32:00,
2013-06-10 09:43:00,67.0,48.0,29.98,SSE,164,1.0,-999.0,51,-99.99,,,-99.99,,2013-06-10 15:43:00,
2013-06-10 09:53:00,67.0,48.0,29.98,SSE,164,1.0,-999.0,51,-99.99,,,-99.99,,2013-06-10 15:53:00,
2013-06-10 10:02:00,69.0,47.0,29.98,SSW,200,2.0,-999.0,46,-99.99,,,-99.99,,2013-06-10 16:02:00,
2013-06-10 10:12:00,69.0,47.0,29.98,SSW,200,2.0,-999.0,46,-99.99,,,-99.99,,2013-06-10 16:12:00,
2013-06-10 10:22:00,71.0,49.0,29.97,WSW,237,4.0,-999.0,45,-99.99,,,-99.99,,2013-06-10 16:22:00,
2013-06-10 10:33:00,72.0,49.0,29.96,SSW,196,3.0,-999.0,45,-99.99,,,-99.99,,2013-06-10 16:33:00,
2013-06-10 10:42:00,75.0,50.0,29.96,SSW,202,4.0,-999.0,41,-99.99,,,-99.99,,2013-06-10 16:42:00,
2013-06-10 10:52:00,75.0,50.0,29.96,SSW,202,4.0,-999.0,41,-99.99,,,-99.99,,2013-06-10 16:52:00,
2013-06-10 11:02:00,77.0,45.0,29.95,South,182,5.0,-999.0,32,-99.99,,,-99.99,,2013-06-10 17:02:00,
2013-06-10 11:14:00,79.0,44.0,29.97,SSE,157,9.0,-999.0,29,-99.99,,,-99.99,,2013-06-10 17:14:00,
2013-06-10 11:26:00,79.0,44.0,29.97,SSE,157,9.0,-999.0,29,-99.99,,,-99.99,,2013-06-10 17:26:00,
2013-06-10 11:38:00,80.0,43.0,29.97,South,174,10.0,-999.0,27,-99.99,,,-99.99,,2013-06-10 17:38:00,
2013-06-10 11:48:00,80.0,43.0,29.97,South,182,9.0,-999.0,27,-99.99,,,-99.99,,2013-06-10 17:48:00,
2013-06-10 11:58:00,80.0,43.0,29.97,South,182,9.0,-999.0,27,-99.99,,,-99.99,,2013-06-10 17:58:00,
2013-06-10 12:06:00,80.0,45.0,29.96,SSW,194,10.0,-999.0,29,-99.99,,,-99.99,,2013-06-10 18:06:00,
2013-06-10 12:14:00,80.0,45.0,29.96,SSW,194,10.0,-999.0,29,-99.99,,,-99.99,,2013-06-10 18:14:00,
2013-06-10 12:24:00,81.0,44.0,29.96,SW,215,9.0,-999.0,27,-99.99,,,-99.99,,2013-06-10 18:24:00,
2013-06-10 12:34:00,81.0,44.0,29.96,South,173,10.0,-999.0,27,-99.99,,,-99.99,,2013-06-10 18:34:00,
2013-06-10 12:47:00,81.0,44.0,29.96,South,173,10.0,-999.0,27,-99.99,,,-99.99,,2013-06-10 18:47:00,
2013-06-10 12:55:00,81.0,43.0,29.96,SSW,200,11.0,-999.0,26,-99.99,,,-99.99,,2013-06-10 18:55:00,
2013-06-10 13:02:00,82.0,43.0,29.96,South,188,11.0,-999.0,25,-99.99,,,-99.99,,2013-06-10 19:02:00,
2013-06-10 13:12:00,82.0,43.0,29.96,South,188,11.0,-999.0,25,-99.99,,,-99.99,,2013-06-10 19:12:00,
2013-06-10 13:22:00,81.0,45.0,29.95,South,185,8.0,-999.0,28,-99.99,,,-99.99,,2013-06-10 19:22:00,
2013-06-10 13:32:00,82.0,45.0,29.94,South,185,10.0,-999.0,27,-99.99,,,-99.99,,2013-06-10 19:32:00,
2013-06-10 13:42:00,83.0,46.0,29.93,South,181,10.0,-999.0,27,-99.99,,,-99.99,,2013-06-10 19:42:00,
2013-06-10 13:53:00,83.0,46.0,29.93,South,181,10.0,-999.0,27,-99.99,,,-99.99,,2013-06-10 19:53:00,
2013-06-10 14:02:00,84.0,42.0,29.93,SW,221,11.0,-999.0,23,-99.99,,,-99.99,,2013-06-10 20:02:00,
2013-06-10 14:11:00,84.0,42.0,29.93,SW,221,11.0,-999.0,23,-99.99,,,-99.99,,2013-06-10 20:11:00,
2013-06-10 14:22:00,84.0,43.0,29.93,South,190,11.0,-999.0,24,-99.99,,,-99.99,,2013-06-10 20:22:00,
2013-06-10 14:32:00,84.0,42.0,29.92,South,186,9.0,-999.0,23,-99.99,,,-99.99,,2013-06-10 20:32:00,
2013-06-10 14:42:00,84.0,42.0,29.92,South,186,9.0,-999.0,23,-99.99,,,-99.99,,2013-06-10 20:42:00,
2013-06-10 14:52:00,84.0,42.0,29.92,WSW,240,9.0,-999.0,23,-99.99,,,-99.99,,2013-06-10 20:52:00,
2013-06-10 15:02:00,83.0,41.0,29.91,SW,228,9.0,-999.0,23,-99.99,,,-99.99,,2013-06-10 21:02:00,
2013-06-10 15:12:00,83.0,41.0,29.91,SW,228,9.0,-999.0,23,-99.99,,,-99.99,,2013-06-10 21:12:00,
2013-06-10 15:22:00,84.0,41.0,29.91,SSW,208,12.0,-999.0,22,-99.99,,,-99.99,,2013-06-10 21:22:00,
2013-06-10 15:33:00,85.0,43.0,29.91,SSE,163,11.0,-999.0,23,-99.99,,,-99.99,,2013-06-10 21:33:00,
2013-06-10 15:42:00,85.0,43.0,29.91,SSE,163,11.0,-999.0,23,-99.99,,,-99.99,,2013-06-10 21:42:00,
2013-06-10 15:53:00,83.0,44.0,29.90,South,181,10.0,-999.0,25,-99.99,,,-99.99,,2013-06-10 21:53:00,
2013-06-10 16:02:00,83.0,41.0,29.90,SSW,211,10.0,-999.0,23,-99.99,,,-99.99,,2013-06-10 22:02:00,
2013-06-10 16:12:00,83.0,41.0,29.90,SSW,211,10.0,-999.0,23,-99.99,,,-99.99,,2013-06-10 22:12:00,
2013-06-10 16:22:00,81.0,41.0,29.90,SW,221,11.0,-999.0,24,-99.99,,,-99.99,,2013-06-10 22:22:00,
2013-06-10 16:33:00,83.0,42.0,29.90,South,186,11.0,-999.0,24,-99.99,,,-99.99,,2013-06-10 22:33:00,
2013-06-10 16:42:00,82.0,43.0,29.89,South,169,12.0,-999.0,25,-99.99,,,-99.99,,2013-06-10 22:42:00,
2013-06-10 16:52:00,82.0,43.0,29.89,South,169,12.0,-999.0,25,-99.99,,,-99.99,,2013-06-10 22:52:00,
2013-06-10 17:02:00,81.0,42.0,29.90,SSW,198,12.0,-999.0,25,-99.99,,,-99.99,,2013-06-10 23:02:00,
2013-06-10 17:11:00,81.0,42.0,29.90,SSW,198,12.0,-999.0,25,-99.99,,,-99.99,,2013-06-10 23:11:00,
2013-06-10 17:22:00,80.0,45.0,29.90,South,171,11.0,-999.0,29,-99.99,,,-99.99,,2013-06-10 23:22:00,
2013-06-10 17:32:00,82.0,44.0,29.89,SSW,194,12.0,-999.0,26,-99.99,,,-99.99,,2013-06-10 23:32:00,
2013-06-10 17:42:00,82.0,44.0,29.89,SSW,194,12.0,-999.0,26,-99.99,,,-99.99,,2013-06-10 23:42:00,
2013-06-10 17:52:00,83.0,45.0,29.88,South,178,11.0,-999.0,26,-99.99,,,-99.99,,2013-06-10 23:52:00,
2013-06-10 18:22:00,83.0,45.0,29.88,SW,216,9.0,-999.0,26,-99.99,,,-99.99,,2013-06-11 00:22:00,
2013-06-10 18:32:00,79.0,41.0,29.88,South,188,10.0,-999.0,26,-99.99,,,-99.99,,2013-06-11 00:32:00,
2013-06-10 18:42:00,78.0,40.0,29.87,SSE,161,9.0,-999.0,26,-99.99,,,-99.99,,2013-06-11 00:42:00,
2013-06-10 18:52:00,78.0,40.0,29.87,SSE,161,9.0,-999.0,26,-99.99,,,-99.99,,2013-06-11 00:52:00,
2013-06-10 19:02:00,79.0,38.0,29.87,SSE,159,11.0,-999.0,23,-99.99,,,-99.99,,2013-06-11 01:02:00,
2013-06-10 19:22:00,78.0,34.0,29.87,SSE,162,11.0,-999.0,20,-99.99,,,-99.99,,2013-06-11 01:22:00,
2013-06-10 19:31:00,76.0,33.0,29.88,SSE,166,10.0,-999.0,21,-99.99,,,-99.99,,2013-06-11 01:31:00,
2013-06-10 19:42:00,76.0,34.0,29.88,SSE,160,8.0,-999.0,22,-99.99,,,-99.99,,2013-06-11 01:42:00,
2013-06-10 19:52:00,76.0,34.0,29.88,SSE,160,8.0,-999.0,22,-99.99,,,-99.99,,2013-06-11 01:52:00,
2013-06-10 20:02:00,76.0,33.0,29.88,South,172,6.0,-999.0,21,-99.99,,,-99.99,,2013-06-11 02:02:00,
2013-06-10 20:11:00,76.0,33.0,29.88,South,172,6.0,-999.0,21,-99.99,,,-99.99,,2013-06-11 02:11:00,
2013-06-10 20:21:00,75.0,27.0,29.88,SSW,192,7.0,-999.0,17,-99.99,,,-99.99,,2013-06-11 02:21:00,
2013-06-10 20:31:00,72.0,26.0,29.88,South,182,5.0,-999.0,18,-99.99,,,-99.99,,2013-06-11 02:31:00,
2013-06-10 20:42:00,69.0,26.0,29.89,South,181,4.0,-999.0,20,-99.99,,,-99.99,,2013-06-11 02:42:00,
2013-06-10 20:52:00,69.0,26.0,29.89,South,181,4.0,-999.0,20,-99.99,,,-99.99,,2013-06-11 02:52:00,
2013-06-10 21:01:00,66.0,25.0,29.90,South,172,1.0,-999.0,21,-99.99,,,-99.99,,2013-06-11 03:01:00,
2013-06-10 21:12:00,65.0,27.0,29.88,NE,49,0.0,-999.0,24,-99.99,,,-99.99,,2013-06-11 03:12:00,
2013-06-10 21:22:00,65.0,27.0,29.88,NE,49,0.0,-999.0,24,-99.99,,,-99.99,,2013-06-11 03:22:00,
2013-06-10 21:32:00,64.0,26.0,29.89,NE,49,0.0,-999.0,24,-99.99,,,-99.99,,2013-06-11 03:32:00,
2013-06-10 21:42:00,66.0,24.0,29.89,NE,49,0.0,-999.0,20,-99.99,,,-99.99,,2013-06-11 03:42:00,
2013-06-10 21:53:00,66.0,24.0,29.89,NE,49,0.0,-999.0,20,-99.99,,,-99.99,,2013-06-11 03:53:00,
2013-06-10 22:02:00,60.0,25.0,29.90,NE,49,0.0,-999.0,26,-99.99,,,-99.99,,2013-06-11 04:02:00,
2013-06-10 22:22:00,56.0,29.0,29.91,NE,49,0.0,-999.0,36,-99.99,,,-99.99,,2013-06-11 04:22:00,
2013-06-10 22:33:00,55.0,28.0,29.91,NE,49,0.0,-999.0,35,-99.99,,,-99.99,,2013-06-11 04:33:00,
2013-06-10 22:42:00,55.0,28.0,29.91,NE,49,0.0,-999.0,35,-99.99,,,-99.99,,2013-06-11 04:42:00,
2013-06-10 22:52:00,53.0,31.0,29.92,NE,49,0.0,-999.0,42,-99.99,,,-99.99,,2013-06-11 04:52:00,
2013-06-10 23:02:00,52.0,31.0,29.92,NE,49,0.0,-999.0,44,-99.99,,,-99.99,,2013-06-11 05:02:00,
2013-06-10 23:22:00,49.0,32.0,29.92,NE,49,1.0,-999.0,51,-99.99,,,-99.99,,2013-06-11 05:22:00,
2013-06-10 23:31:00,46.0,30.0,29.92,NE,36,2.0,-999.0,53,-99.99,,,-99.99,,2013-06-11 05:31:00,
2013-06-10 23:42:00,46.0,30.0,29.92,NE,36,2.0,-999.0,53,-99.99,,,-99.99,,2013-06-11 05:42:00,
2013-06-10 23:52:00,46.0,32.0,29.90,ENE,58,3.0,-999.0,57,-99.99,,,-99.99,,2013-06-11 05:52:00,